Regional Weather Roundup
Issued by NWS Sterling, VA

Home | Current Version | Previous Version | Text Only | Print | Product List | Glossary Off
Versions: 1 2 3 4 5 6 7 8 9 10 11 12 13 14 15 16 17 18 19 20 21 22 23 24 25 26 27 28 29 30 31 32 33 34 35 36 37 38 39 40 41 42 43 44 45 46 47 48 49 50

330
ASUS41 KLWX 010210
RWRLWX

REGIONAL WEATHER ROUNDUP
NATIONAL WEATHER SERVICE BALTIMORE MD/WASHINGTON DC
1000 PM EDT SAT APR 30 2016

Note: "FAIR" indicates few or no clouds below 12,000 feet
with no significant weather and/or obstructions to visibility.
 TC=TEMPERATURE CELSIUS

 * =Non NWS site. Station does not report precipitation (e.g. rain,
    snow, etc.), thunder, or fog.

DCZ001-MDZ009-015-VAZ040>042-051-053>054-010300-
WASHINGTON METRO

CITY           SKY/WX    TMP DP  RH WIND       PRES   REMARKS
WASHINGTON NAT LGT RAIN  55  50  83 S5        30.22R
DULLES         LGT RAIN  53  50  89 S5        30.20S
ANDREWS AFB    DRIZZLE   52  50  93 SE2       30.20S
FT BELVOIR     LGT RAIN  53  51  92 CALM      30.21R
QUANTICO       LGT RAIN  56  51  84 S8        30.22R
COLLEGE PARK*  CLOUDY    52  50  93 CALM      30.21S
LEESBURG*      LGT RAIN  54  54 100 SE6       30.21S
MANASSAS*      CLOUDY    54  54 100 CALM      30.21R
GAITHERSBURG*  CLOUDY    52  46  82 SE5       30.24S

$$

MDZ006>007-011-014-010300-
BALTIMORE METRO

CITY           SKY/WX    TMP DP  RH WIND       PRES   REMARKS
BWI AIRPORT    LGT RAIN  53  50  89 CALM      30.21R
MD SCIENCE CTR   N/A     56  48  74 MISG      30.22R
MARTIN STATE   CLOUDY    55  52  88 E9        30.23
ANNAPOLIS      CLOUDY    56  50  80 MISG      30.21S
FORT MEADE*    CLOUDY    52  50  93 CALM      30.23S

$$

MDZ012-015-019>023-010300-
MARYLAND EASTERN SHORE

CITY           SKY/WX    TMP DP  RH WIND       PRES   REMARKS
OCEAN CITY     CLOUDY    51  45  79 E5        30.24S
SALISBURY      CLOUDY    50  44  80 SE5       30.23S
CAMBRIDGE*     CLOUDY    52  43  71 SE8       30.22F

$$

MDZ017>025-010300-
SOUTHERN MARYLAND

CITY           SKY/WX    TMP DP  RH WIND       PRES   REMARKS
PATUXENT RIVER CLOUDY    55  48  77 SE12      30.21R
ST INIGOES       N/A    N/A N/A N/A MISG        N/A
LEONARDTOWN*   CLOUDY    52  48  87 CALM      30.23R

$$

MDZ003>005-010300-
NORTH CENTRAL MARYLAND

CITY           SKY/WX    TMP DP  RH WIND       PRES   REMARKS
FREDERICK*     DRIZZLE   52  52 100 CALM      30.22S
HAGERSTOWN APT CLOUDY    53  48  83 S7        30.18S
WESTMINSTER*   DRIZZLE   52  48  87 S5        30.19S

$$

MDZ501>502-010300-
WESTERN MARYLAND

CITY           SKY/WX    TMP DP  RH WIND       PRES   REMARKS
OAKLAND*       FOG       45  45 100 SE15G21   30.09S VSB 1/4
CUMBERLAND*    CLOUDY    52  52 100 SE3       30.18R

$$

VAZ025>031-010300-
SHENANDOAH VALLEY

CITY           SKY/WX    TMP DP  RH WIND       PRES   REMARKS
WINCHESTER*    LGT RAIN  52  50  93 SE6       30.17S
FRONT ROYAL*   CLOUDY    52  52 100 CALM      30.15F
LURAY*         RAIN      54  54 100 S5        30.16S
NEW MARKET*    CLOUDY    54  52  95 CALM      30.14F
STAUNTON*      DRIZZLE   55  54  97 CALM      30.17F
WAYNESBORO*    CLOUDY    52  51  96 MISG      30.17F

$$

WVZ021-048>050-054>055-010300-
EASTERN WEST VIRGINIA PANHANDLE

CITY           SKY/WX    TMP DP  RH WIND       PRES   REMARKS
MARTINSBURG    LGT RAIN  51  49  92 CALM      30.18R FOG
PETERSBURG*    CLOUDY    56  55  95 CALM      30.12R FOG

$$

VAZ036>039-050-010300-
CENTRAL FOOTHILLS

CITY           SKY/WX    TMP DP  RH WIND       PRES   REMARKS
CHARLOTTESVILL LGT RAIN  55  52  89 NE5       30.18F FOG
CULPEPER*      RAIN      54  53  97 CALM      30.21S
ORANGE*        LGT RAIN  54  54 100 CALM      30.22S
GORDONSVILLE*  CLOUDY    54  53  97 N3        30.19S
WARRENTON*     RAIN      54  48  82 CALM      30.20S

$$

VAZ055>057-010300-
NORTH AND CENTRAL PIEDMONT

CITY           SKY/WX    TMP DP  RH WIND       PRES   REMARKS
FREDERICKSBRG* LGT RAIN  54  54 100 CALM      30.21R
STAFFORD*      LGT RAIN  52  50  92 CALM      30.25R

$$

NCZ024-NYZ072-PAZ021-071-VAZ022-071-010300-
OTHER REGIONAL OBSERVATIONS

CITY           SKY/WX    TMP DP  RH WIND       PRES   REMARKS
NEW YORK CITY  CLEAR     51  36  56 SE8       30.26F
PHILADELPHIA   CLOUDY    54  33  45 SE7       30.24R
PITTSBURGH     CLOUDY    57  54  89 SE10      30.00S
ROANOKE        LGT RAIN  54  53  97 SE6       30.18F
RICHMOND       CLOUDY    54  51  90 E5        30.20R
RALEIGH        CLOUDY    60  56  86 E7        30.17R

$$

ANZ530>537-010300-
MARINE OBSERVATIONS

STATION/POSITION TIME  TEMP    WIND        PRES
                       AIR SEA DIR/SP/G
                 (UTC) (F)     (DEG/KT/KT) (MB)
THOMAS PT LIGHT  0200   55 57  130/ 11/ 12 1023.9F
BALT KEY BRIDGE  0100   56     130/  6/  7 1022.8R
COVE POINT       0100   55     170/  5/  6 1023.5S
LEWISETTA        0100   56 60  130/ 15/ 18 1022.4F
SOLOMONS ISLAND  0100   56 59  100/  5/  6   N/A
PINEY POINT      0100          140/ 10/ 11   N/A

$$





USA.gov is the U.S. government's official web portal to all federal, state and local government web resources and services.